Location: Unspecified
(0.0000°N, 0.0000°E)
Time: 16:17:49
(UTC+00:00)

CHUBUSAT 2 - Pass Details

Date: 17 June 2023
Orbit: 544 x 560 km, 31.0° (Epoch: 20 September)

Event Time Altitude Azimuth Distance (km) Brightness Sun altitude
Rises 18:54:56 0° 211° (SSW) 2,742 ? -12.4°
Reaches altitude 10° 18:57:52 10° 191° (S) 1,848 ? -13.0°
Maximum altitude 19:00:43 17° 149° (SSE) 1,447 ? -13.7°
Enters shadow 19:00:51 17° 147° (SSE) 1,448 ? -13.7°
